When you browse on this site, cookies collect data to enhance your experience and personalize the content and advertising you see.
Visit our Privacy Policy to learn more. By continuing to use the site, you agree to this use of cookies and data.
  • In Austria
  • List of Countries
  • For 7 days
  • Water Temperature
  • Satellite Maps
  • Weather Map
  • News
  • Weather Widgets
  • user-avatar
    Login

    Hourly Weather Setubal

    Today, 23 March, Saturday

    Time Temperature Precipitation Wind Pressure Humidity
    00:00 +11°C° 0 mm 4 mps 761 mmHg 52%
    01:00 +11°C° 0 mm 4 mps 761 mmHg 53%
    02:00 +10°C° 0 mm 4 mps 761 mmHg 53%
    03:00 +10°C° 0 mm 4 mps 761 mmHg 54%
    04:00 +8°C° 0 mm 4 mps 761 mmHg 54%
    05:00 +8°C° 0 mm 4 mps 760 mmHg 55%
    06:00 +10°C° 0 mm 4 mps 761 mmHg 53%
    07:00 +12°C° 0 mm 4 mps 761 mmHg 51%
    08:00 +14°C° 0 mm 4 mps 761 mmHg 49%
    09:00 +17°C° 0 mm 4 mps 761 mmHg 44%
    10:00 +19°C° 0 mm 4 mps 760 mmHg 39%
    11:00 +22°C° 0 mm 4 mps 760 mmHg 34%
    12:00 +22°C° 0 mm 3 mps 760 mmHg 34%
    13:00 +24°C° 0 mm 3 mps 759 mmHg 33%
    14:00 +24°C° 0 mm 3 mps 759 mmHg 33%
    15:00 +24°C° 0 mm 3 mps 758 mmHg 35%
    16:00 +22°C° 0 mm 3 mps 758 mmHg 38%
    17:00 +21°C° 0 mm 3 mps 758 mmHg 40%
    18:00 +20°C° 0 mm 3 mps 758 mmHg 45%
    19:00 +18°C° 0 mm 3 mps 759 mmHg 49%
    20:00 +15°C° 0 mm 4 mps 759 mmHg 53%
    21:00 +16°C° 0 mm 3 mps 759 mmHg 57%
    22:00 +14°C° 0 mm 3 mps 759 mmHg 62%
    23:00 +14°C° 0 mm 2 mps 759 mmHg 66%

    Tomorrow, 24 March, Sunday

    Time Temperature Precipitation Wind Pressure Humidity
    00:00 +14°C° 0 mm 2 mps 759 mmHg 67%
    01:00 +13°C° 0 mm 2 mps 758 mmHg 68%
    02:00 +13°C° 0 mm 2 mps 758 mmHg 70%
    03:00 +11°C° 0 mm 3 mps 758 mmHg 70%
    04:00 +11°C° 0 mm 3 mps 758 mmHg 71%
    05:00 +10°C° 0 mm 3 mps 758 mmHg 72%
    06:00 +12°C° 0 mm 4 mps 759 mmHg 66%
    07:00 +13°C° 0 mm 4 mps 759 mmHg 60%
    08:00 +15°C° 0 mm 4 mps 759 mmHg 54%
    09:00 +18°C° 0 mm 4 mps 759 mmHg 49%
    10:00 +20°C° 0 mm 4 mps 759 mmHg 44%
    11:00 +22°C° 0 mm 4 mps 759 mmHg 39%
    12:00 +22°C° 0 mm 4 mps 759 mmHg 37%
    13:00 +24°C° 0 mm 3 mps 758 mmHg 35%
    14:00 +25°C° 0 mm 3 mps 758 mmHg 34%
    15:00 +24°C° 0 mm 3 mps 758 mmHg 37%
    16:00 +23°C° 0 mm 2 mps 758 mmHg 40%
    17:00 +23°C° 0 mm 2 mps 758 mmHg 43%
    18:00 +20°C° 0 mm 2 mps 758 mmHg 47%
    19:00 +18°C° 0 mm 2 mps 758 mmHg 50%
    20:00 +17°C° 0 mm 2 mps 759 mmHg 54%
    21:00 +16°C° 0 mm 2 mps 758 mmHg 56%
    22:00 +15°C° 0 mm 2 mps 758 mmHg 57%
    23:00 +14°C° 0 mm 3 mps 758 mmHg 59%

    Day after tomorrow, 25 March, Monday

    Time Temperature Precipitation Wind Pressure Humidity
    00:00 +13°C° 0 mm 3 mps 758 mmHg 59%
    01:00 +13°C° 0 mm 3 mps 758 mmHg 58%
    02:00 +12°C° 0 mm 4 mps 757 mmHg 58%
    03:00 +12°C° 0 mm 4 mps 757 mmHg 59%
    04:00 +11°C° 0 mm 4 mps 757 mmHg 61%
    05:00 +11°C° 0 mm 4 mps 757 mmHg 62%
    06:00 +13°C° 0 mm 4 mps 757 mmHg 57%
    07:00 +14°C° 0 mm 5 mps 758 mmHg 52%
    08:00 +16°C° 0 mm 5 mps 758 mmHg 47%
    09:00 +19°C° 0 mm 5 mps 758 mmHg 44%
    10:00 +21°C° 0 mm 5 mps 758 mmHg 40%
    11:00 +23°C° 0 mm 5 mps 757 mmHg 36%
    12:00 +23°C° 0 mm 5 mps 757 mmHg 36%
    13:00 +25°C° 0 mm 4 mps 756 mmHg 35%
    14:00 +25°C° 0 mm 4 mps 755 mmHg 34%
    15:00 +25°C° 0 mm 4 mps 755 mmHg 37%
    16:00 +24°C° 0 mm 3 mps 755 mmHg 40%
    17:00 +22°C° 0 mm 3 mps 754 mmHg 42%
    18:00 +21°C° 0 mm 3 mps 755 mmHg 44%
    19:00 +19°C° 0 mm 3 mps 755 mmHg 46%
    20:00 +18°C° 0 mm 3 mps 755 mmHg 49%
    21:00 +17°C° 0 mm 3 mps 755 mmHg 49%
    22:00 +16°C° 0 mm 3 mps 755 mmHg 50%
    23:00 +16°C° 0 mm 3 mps 754 mmHg 51%

    26 March, Tuesday

    Time Temperature Precipitation Wind Pressure Humidity
    00:00 +14°C° 0 mm 3 mps 754 mmHg 51%
    01:00 +14°C° 0 mm 3 mps 754 mmHg 51%
    02:00 +13°C° 0 mm 3 mps 753 mmHg 51%
    03:00 +13°C° 0 mm 4 mps 753 mmHg 54%
    04:00 +13°C° 0 mm 4 mps 753 mmHg 56%
    05:00 +13°C° 0 mm 4 mps 753 mmHg 58%
    06:00 +15°C° 0 mm 5 mps 753 mmHg 54%
    07:00 +16°C° 0 mm 5 mps 753 mmHg 50%
    08:00 +19°C° 0 mm 6 mps 753 mmHg 46%
    09:00 +21°C° 0 mm 6 mps 753 mmHg 42%
    10:00 +23°C° 0 mm 6 mps 753 mmHg 38%
    11:00 +26°C° 0 mm 6 mps 753 mmHg 33%
    12:00 +26°C° 0 mm 6 mps 752 mmHg 33%
    13:00 +27°C° 0 mm 6 mps 752 mmHg 33%
    14:00 +28°C° 0 mm 6 mps 751 mmHg 33%
    15:00 +27°C° 0 mm 5 mps 751 mmHg 36%
    16:00 +27°C° 0 mm 4 mps 751 mmHg 39%
    17:00 +26°C° 0 mm 3 mps 751 mmHg 42%
    18:00 +25°C° 0 mm 3 mps 752 mmHg 46%
    19:00 +22°C° 0 mm 3 mps 752 mmHg 51%
    20:00 +21°C° 0 mm 3 mps 752 mmHg 55%
    21:00 +20°C° 0 mm 4 mps 753 mmHg 54%
    22:00 +20°C° 0 mm 4 mps 753 mmHg 53%
    23:00 +20°C° 0 mm 4 mps 753 mmHg 52%

    27 March, Wednesday

    Time Temperature Precipitation Wind Pressure Humidity
    00:00 +19°C° 0 mm 5 mps 753 mmHg 53%
    01:00 +17°C° 0 mm 5 mps 753 mmHg 54%
    02:00 +16°C° 0 mm 5 mps 753 mmHg 54%
    03:00 +16°C° 0 mm 6 mps 753 mmHg 53%
    04:00 +16°C° 0 mm 7 mps 754 mmHg 51%
    05:00 +16°C° 0 mm 7 mps 754 mmHg 50%
    06:00 +16°C° 0.1 mm 7 mps 754 mmHg 53%
    07:00 +15°C° 0.1 mm 8 mps 755 mmHg 56%
    08:00 +15°C° 0.1 mm 8 mps 755 mmHg 59%
    09:00 +15°C° 0.5 mm 8 mps 755 mmHg 65%
    10:00 +14°C° 0.5 mm 7 mps 755 mmHg 71%
    11:00 +14°C° 0.5 mm 7 mps 755 mmHg 77%
    12:00 +14°C° 0.3 mm 6 mps 755 mmHg 76%
    13:00 +14°C° 0.3 mm 6 mps 755 mmHg 76%
    14:00 +14°C° 0.3 mm 5 mps 755 mmHg 76%
    15:00 +14°C° 0 mm 5 mps 755 mmHg 73%
    16:00 +15°C° 0 mm 5 mps 755 mmHg 70%
    17:00 +16°C° 0 mm 5 mps 756 mmHg 67%
    18:00 +15°C° 0 mm 5 mps 756 mmHg 70%
    19:00 +15°C° 0 mm 4 mps 756 mmHg 72%
    20:00 +14°C° 0 mm 4 mps 757 mmHg 75%
    21:00 +14°C° 0.1 mm 4 mps 757 mmHg 79%
    22:00 +14°C° 0.1 mm 4 mps 757 mmHg 82%
    23:00 +14°C° 0.1 mm 4 mps 757 mmHg 86%

    28 March, Thursday

    Time Temperature Precipitation Wind Pressure Humidity
    00:00 +14°C° 0 mm 4 mps 757 mmHg 86%
    01:00 +13°C° 0 mm 4 mps 757 mmHg 86%
    02:00 +13°C° 0 mm 5 mps 757 mmHg 86%
    03:00 +13°C° 0 mm 5 mps 757 mmHg 86%
    04:00 +12°C° 0 mm 5 mps 757 mmHg 86%
    05:00 +12°C° 0 mm 5 mps 757 mmHg 85%
    06:00 +12°C° 0 mm 5 mps 757 mmHg 81%
    07:00 +13°C° 0 mm 6 mps 758 mmHg 77%
    08:00 +14°C° 0 mm 6 mps 758 mmHg 73%
    09:00 +16°C° 0.1 mm 6 mps 758 mmHg 68%
    10:00 +19°C° 0.1 mm 6 mps 758 mmHg 63%
    11:00 +21°C° 0.1 mm 6 mps 758 mmHg 57%
    12:00 +21°C° 0.4 mm 6 mps 758 mmHg 60%
    13:00 +20°C° 0.4 mm 5 mps 758 mmHg 63%
    14:00 +20°C° 0.4 mm 4 mps 758 mmHg 65%
    15:00 +20°C° 0.9 mm 4 mps 758 mmHg 69%
    16:00 +19°C° 0.9 mm 3 mps 758 mmHg 73%
    17:00 +19°C° 0.9 mm 2 mps 758 mmHg 77%
    18:00 +19°C° 0.4 mm 1 mps 759 mmHg 81%
    19:00 +18°C° 0.4 mm 1 mps 759 mmHg 86%
    20:00 +15°C° 0.4 mm 0 mps 760 mmHg 90%
    21:00 +15°C° 0.1 mm 1 mps 760 mmHg 91%
    22:00 +15°C° 0.1 mm 1 mps 760 mmHg 91%
    23:00 +15°C° 0.1 mm 2 mps 760 mmHg 92%
    Show more